Tracking 30072 objects as of 14-Jan-2025
HD Live streaming from Space Station
objects crossing your sky now

STARLINK-2568

Track STARLINK-2568 now!
10-day predictions
STARLINK-2568 is classified as:


NORAD ID: 48406
Int'l Code: 2021-038BF
Perigee: 553.2 km
Apogee: 555.4 km
Inclination: 53.1 °
Period: 95.6 minutes
Semi major axis: 6925 km
RCS: Unknown
Launch date: May 4, 2021
Source: United States (US)
Launch site: AIR FORCE EASTERN TEST RANGE (AFETR)
Your satellite tracking list
Your tracking list is empty




NASA's NSSDC Master Catalog

Two Line Element Set (TLE):
1 48406U 21038BF  25014.41324947  .00007728  00000-0  53706-3 0  9990
2 48406  53.0552  63.8197 0001610  85.7329 274.3844 15.06407284204702
Source of the keplerian elements: AFSPC